Satellite: OKEAN-4 Catalog number: 23317 Epoch time: 10014.73257783 Element set: 127 Inclination: 082.5412 deg RA of node: 137.0826 deg Eccentricity: 0.0023070 Arg of perigee: 031.4326 deg Mean anomaly: 328.8255 deg Mean motion: 14.82756654 rev/day Decay rate: 2.80e-06 rev/day^2 Epoch rev: 82371 Checksum: 280
Satellite: NOAA-14 Catalog number: 23455 Epoch time: 10013.78895122 Element set: 0905 Inclination: 098.8917 deg RA of node: 095.5379 deg Eccentricity: 0.0008902 Arg of perigee: 318.1154 deg Mean anomaly: 041.9328 deg Mean motion: 14.13776178 rev/day Decay rate: -4.9e-07 rev/day^2 Epoch rev: 77568 Checksum: 337
Satellite: NOAA-15 Catalog number: 25338 Epoch time: 10013.87104516 Element set: 0233 Inclination: 098.6048 deg RA of node: 003.6780 deg Eccentricity: 0.0010975 Arg of perigee: 159.7058 deg Mean anomaly: 200.4567 deg Mean motion: 14.24801399 rev/day Decay rate: -1.0e-07 rev/day^2 Epoch rev: 60677 Checksum: 292
Satellite: RESURS Catalog number: 25394 Epoch time: 10014.62947521 Element set: 406 Inclination: 098.3176 deg RA of node: 040.9819 deg Eccentricity: 0.0001272 Arg of perigee: 351.4716 deg Mean anomaly: 008.6434 deg Mean motion: 14.24192186 rev/day Decay rate: -2.2e-07 rev/day^2 Epoch rev: 59849 Checksum: 292
Satellite: FENGYUN1 Catalog number: 25730 Epoch time: 10014.83235348 Element set: 948 Inclination: 098.7742 deg RA of node: 343.8792 deg Eccentricity: 0.0024232 Arg of perigee: 337.5069 deg Mean anomaly: 022.5029 deg Mean motion: 14.08167545 rev/day Decay rate: 1.21e-06 rev/day^2 Epoch rev: 55010 Checksum: 285
Satellite: OKEAN-0 Catalog number: 25860 Epoch time: 10014.82411276 Element set: 887 Inclination: 097.8127 deg RA of node: 352.9077 deg Eccentricity: 0.0000777 Arg of perigee: 109.2806 deg Mean anomaly: 250.8488 deg Mean motion: 14.73607449 rev/day Decay rate: 4.1e-07 rev/day^2 Epoch rev: 56431 Checksum: 310
Satellite: NOAA-16 Catalog number: 26536 Epoch time: 10013.88144266 Element set: 0710 Inclination: 099.1779 deg RA of node: 027.6610 deg Eccentricity: 0.0011096 Arg of perigee: 053.0862 deg Mean anomaly: 307.1306 deg Mean motion: 14.12543012 rev/day Decay rate: 8.2e-07 rev/day^2 Epoch rev: 48004 Checksum: 266
Satellite: NOAA-17 Catalog number: 27453 Epoch time: 10013.85087099 Element set: 0713 Inclination: 098.4567 deg RA of node: 070.3446 deg Eccentricity: 0.0011051 Arg of perigee: 225.3831 deg Mean anomaly: 134.6431 deg Mean motion: 14.24121267 rev/day Decay rate: -7.5e-07 rev/day^2 Epoch rev: 39273 Checksum: 286
Satellite: NOAA-18 Catalog number: 28654 Epoch time: 10013.89337148 Element set: 0196 Inclination: 098.9329 deg RA of node: 320.7444 deg Eccentricity: 0.0015008 Arg of perigee: 127.0829 deg Mean anomaly: 233.1716 deg Mean motion: 14.11320152 rev/day Decay rate: 3.37e-06 rev/day^2 Epoch rev: 23967 Checksum: 298
Satellite: NOAA-19 Catalog number: 33591 Epoch time: 10013.84786335 Element set: 0404 Inclination: 098.7722 deg RA of node: 319.3813 deg Eccentricity: 0.0014398 Arg of perigee: 010.0180 deg Mean anomaly: 350.1303 deg Mean motion: 14.11015527 rev/day Decay rate: -4.8e-07 rev/day^2 Epoch rev: 04814 Checksum: 269
/EX SB KEPS @ AMSAT $ORB10014.M Orbital Elements 10014.MISC
HR AMSAT ORBITAL ELEMENTS FOR MANNED AND MISCELLANEOUS SATELLITES FROM WA5QGD FORT WORTH,TX January 14, 2010 Send Subscribe/unsubscribe to KEPS at http://www.amsat.org/mailman/listinfo/keps BID: ORB10014.M TO ALL RADIO AMATEURS BT
Satellite: HUBBLE Catalog number: 20580 Epoch time: 10012.78322287 Element set: 503 Inclination: 028.4687 deg RA of node: 174.3033 deg Eccentricity: 0.0003229 Arg of perigee: 348.3260 deg Mean anomaly: 011.7260 deg Mean motion: 15.00877270 rev/day Decay rate: 3.66e-06 rev/day^2 Epoch rev: 88137 Checksum: 269
Satellite: ISS Catalog number: 25544 Epoch time: 10014.97474444 Element set: 372 Inclination: 051.6459 deg RA of node: 297.7480 deg Eccentricity: 0.0007371 Arg of perigee: 183.7346 deg Mean anomaly: 278.4013 deg Mean motion: 15.77449251 rev/day Decay rate: 1.7682e-04 rev/day^2 Epoch rev: 63933 Checksum: 323
Satellite: CO-58 Catalog number: 28895 Epoch time: 10013.21771845 Element set: 0487 Inclination: 098.0366 deg RA of node: 262.6323 deg Eccentricity: 0.0018635 Arg of perigee: 052.8542 deg Mean anomaly: 307.4345 deg Mean motion: 14.59833463 rev/day Decay rate: 4.0e-07 rev/day^2 Epoch rev: 22437 Checksum: 314
Satellite: FALCON Catalog number: 30776 Epoch time: 10014.89052336 Element set: 743 Inclination: 035.4337 deg RA of node: 254.8178 deg Eccentricity: 0.0001826 Arg of perigee: 307.1870 deg Mean anomaly: 052.8680 deg Mean motion: 15.03423303 rev/day Decay rate: 4.82e-06 rev/day^2 Epoch rev: 15697 Checksum: 286
Satellite: MAST Catalog number: 31126 Epoch time: 10014.64649558 Element set: 777 Inclination: 097.9617 deg RA of node: 064.4310 deg Eccentricity: 0.0094518 Arg of perigee: 344.0292 deg Mean anomaly: 015.7955 deg Mean motion: 14.53545991 rev/day Decay rate: 1.54e-06 rev/day^2 Epoch rev: 14575 Checksum: 314
Satellite: CAPE1 Catalog number: 31130 Epoch time: 10013.58408571 Element set: 0791 Inclination: 097.9604 deg RA of node: 061.1441 deg Eccentricity: 0.0102753 Arg of perigee: 354.1602 deg Mean anomaly: 005.8393 deg Mean motion: 14.52123930 rev/day Decay rate: 1.69e-06 rev/day^2 Epoch rev: 14522 Checksum: 257
Satellite: COMPASS Catalog number: 32787 Epoch time: 10013.33112838 Element set: 0569 Inclination: 097.9156 deg RA of node: 080.0838 deg Eccentricity: 0.0016835 Arg of perigee: 069.9538 deg Mean anomaly: 290.3509 deg Mean motion: 14.81732392 rev/day Decay rate: 1.29e-06 rev/day^2 Epoch rev: 09256 Checksum: 319
Satellite: AAUSAT2 Catalog number: 32788 Epoch time: 10014.15889449 Element set: 562 Inclination: 097.9152 deg RA of node: 080.9969 deg Eccentricity: 0.0016534 Arg of perigee: 067.4752 deg Mean anomaly: 292.8204 deg Mean motion: 14.81868143 rev/day Decay rate: 6.72e-06 rev/day^2 Epoch rev: 9269 Checksum: 342
Satellite: DO-64 Catalog number: 32789 Epoch time: 10013.70539345 Element set: 0580 Inclination: 097.9222 deg RA of node: 080.8676 deg Eccentricity: 0.0016524 Arg of perigee: 069.7462 deg Mean anomaly: 290.5491 deg Mean motion: 14.81921136 rev/day Decay rate: 5.54e-06 rev/day^2 Epoch rev: 09262 Checksum: 320
Satellite: CO-66 Catalog number: 32791 Epoch time: 10013.19677092 Element set: 0559 Inclination: 097.9169 deg RA of node: 079.9794 deg Eccentricity: 0.0017259 Arg of perigee: 068.6286 deg Mean anomaly: 291.6769 deg Mean motion: 14.81542211 rev/day Decay rate: 8.6e-07 rev/day^2 Epoch rev: 09250 Checksum: 355
Satellite: RS-30 Catalog number: 32953 Epoch time: 10013.34809354 Element set: 0501 Inclination: 082.5026 deg RA of node: 125.9645 deg Eccentricity: 0.0019826 Arg of perigee: 081.6465 deg Mean anomaly: 278.6860 deg Mean motion: 12.43003123 rev/day Decay rate: 1.0e-07 rev/day^2 Epoch rev: 07450 Checksum: 267
Satellite: TACSAT-3 Catalog number: 35001 Epoch time: 10013.60719974 Element set: 0204 Inclination: 040.4551 deg RA of node: 061.4365 deg Eccentricity: 0.0024206 Arg of perigee: 289.2337 deg Mean anomaly: 070.5859 deg Mean motion: 15.39977695 rev/day Decay rate: 3.875e-05 rev/day^2 Epoch rev: 03678 Checksum: 309
Satellite: PHARMSAT Catalog number: 35002 Epoch time: 10013.49193405 Element set: 0188 Inclination: 040.4699 deg RA of node: 060.7896 deg Eccentricity: 0.0027208 Arg of perigee: 292.7943 deg Mean anomaly: 066.9996 deg Mean motion: 15.40666374 rev/day Decay rate: 3.347e-05 rev/day^2 Epoch rev: 03677 Checksum: 325
Satellite: HAWKSAT1 Catalog number: 35003 Epoch time: 10013.49881445 Element set: 0199 Inclination: 040.4615 deg RA of node: 058.8664 deg Eccentricity: 0.0026417 Arg of perigee: 298.9849 deg Mean anomaly: 060.8317 deg Mean motion: 15.42073154 rev/day Decay rate: 6.910e-05 rev/day^2 Epoch rev: 03680 Checksum: 303
Satellite: CP6 Catalog number: 35004 Epoch time: 10013.48565814 Element set: 0185 Inclination: 040.4610 deg RA of node: 058.7724 deg Eccentricity: 0.0025833 Arg of perigee: 299.3964 deg Mean anomaly: 060.4267 deg Mean motion: 15.42337516 rev/day Decay rate: 7.924e-05 rev/day^2 Epoch rev: 03679 Checksum: 306
Satellite: AEROCUB3 Catalog number: 35005 Epoch time: 10013.51418725 Element set: 189 Inclination: 040.4746 deg RA of node: 059.2590 deg Eccentricity: 0.0024941 Arg of perigee: 294.5198 deg Mean anomaly: 065.3013 deg Mean motion: 15.42460940 rev/day Decay rate: 1.3892e-04 rev/day^2 Epoch rev: 3679 Checksum: 293
Satellite: DRAGNSAT Catalog number: 35690 Epoch time: 10014.17516524 Element set: 187 Inclination: 051.6370 deg RA of node: 288.5421 deg Eccentricity: 0.0003123 Arg of perigee: 071.1819 deg Mean anomaly: 288.9520 deg Mean motion: 15.93838825 rev/day Decay rate: 8.7599e-04 rev/day^2 Epoch rev: 2660 Checksum: 309
Satellite: POLLUX Catalog number: 35693 Epoch time: 10014.84482118 Element set: 183 Inclination: 051.6378 deg RA of node: 286.2968 deg Eccentricity: 0.0000668 Arg of perigee: 073.9297 deg Mean anomaly: 286.2000 deg Mean motion: 15.91864510 rev/day Decay rate: 6.9906e-04 rev/day^2 Epoch rev: 2666 Checksum: 323
Satellite: CASTOR Catalog number: 35694 Epoch time: 10014.15332188 Element set: 158 Inclination: 051.6407 deg RA of node: 293.0255 deg Eccentricity: 0.0001979 Arg of perigee: 331.2402 deg Mean anomaly: 028.8599 deg Mean motion: 15.85401117 rev/day Decay rate: 2.5610e-04 rev/day^2 Epoch rev: 2651 Checksum: 277
Satellite: METEOR-M Catalog number: 35865 Epoch time: 10013.66840166 Element set: 101 Inclination: 098.7822 deg RA of node: 068.4083 deg Eccentricity: 0.0003263 Arg of perigee: 087.3159 deg Mean anomaly: 272.8343 deg Mean motion: 14.21828423 rev/day Decay rate: 1.76e-06 rev/day^2 Epoch rev: 1676 Checksum: 291
